Regional Weather Roundup
Issued by NWS

Home | Current Version | Previous Version | Graphics & Text | Print | Product List | Glossary On
Versions: 1 2 3 4 5 6 7 8 9 10 11 12 13 14 15 16 17 18 19 20 21 22 23 24 25 26 27 28 29 30 31 32 33 34 35 36 37 38 39 40 41 42 43 44 45 46 47 48 49 50
000
ASUS43 KFSD 210010
RWRSD

WEATHER ROUNDUP FOR SOUTH DAKOTA
NATIONAL WEATHER SERVICE SIOUX FALLS SD
600 PM CST TUE FEB 20 2018

NOTE: "FAIR" INDICATES FEW OR NO CLOUDS BELOW 12,000 FEET WITH NO
SIGNIFICANT WEATHER AND/OR OBSTRUCTIONS TO VISIBILITY.


SDZ001>005-009-010-012>017-210100-
NORTHWEST AND NORTH CENTRAL SOUTH DAKOTA

CITY           SKY/WX    TMP DP  RH WIND       PRES   REMARKS
BUFFALO          N/A      0  -9  65 W15       30.06R WCI -19
FAITH            N/A      0  -6  76 W13       30.18R WCI -18
MOBRIDGE       FAIR       7  -3  64 W10       30.21R WCI  -8
$$

SDZ012>016-024>037-041>051-057-063-072>074-210100-
SOUTHWEST AND SOUTH CENTRAL SOUTH DAKOTA

CITY           SKY/WX    TMP DP  RH WIND       PRES   REMARKS
RAPID CTY ARPT FAIR      -2  -9  72 S6        30.16R WCI -14
PIERRE         FAIR       5  -2  72 W14       30.28R WCI -12
CUSTER         FAIR       5  -7  57 W5        29.93R WCI  -4
ELLSWORTH AFB  FAIR       1  -7  70 S7        30.14R WCI -12
PHILIP         FAIR       2  -6  69 W6        30.27R WCI  -9
PINE RIDGE     FAIR       3  -6  66 SW9       30.16S WCI -12
SPEARFISH        N/A      3  -8  60 NW10      30.09R WCI -12
WINNER         FAIR       6  -3  66 W6        30.29R WCI  -4
$$

SDZ004>011-016>023-039-040-210100-
NORTHEAST SOUTH DAKOTA

CITY           SKY/WX    TMP DP  RH WIND       PRES   REMARKS
ABERDEEN       FAIR       8  -1  66 W8        30.27R WCI  -4
WATERTOWN      FAIR       7   0  73 W8        30.22R WCI  -6
BROOKINGS      FAIR       7   0  73 NW12      30.24R WCI  -8
SISSETON         N/A      5  -2  72 W7        30.25R WCI  -7
$$

SDZ017-020-022-023-036>040-048>070-210100-
SOUTHEAST SOUTH DAKOTA

CITY           SKY/WX    TMP DP  RH WIND       PRES   REMARKS
SIOUX FALLS    FAIR       9   1  70 NW16      30.26R WCI  -8
HURON          FAIR       6   0  76 W9        30.31R WCI  -8
CHAMBERLAIN    FAIR       7   0  72 W6        30.32R WCI  -3
MITCHELL       FAIR       8   1  73 NW9       30.34R WCI  -5
YANKTON        FAIR      10   4  76 NW16      30.32R WCI  -7
$$

ABBREVIATIONS USED IN REMARKS
   TC - TEMPERATURE IN CELSIUS
  WCI - WIND CHILL INDEX
   HX - HEAT INDEX
  VSB - VISIBILITY




USA.gov is the U.S. government's official web portal to all federal, state and local government web resources and services.